Date String (YYYY-MM-DD hh:mm:ss) UTC,Instrument flags,Ambient pressure (hPa),Sample flow (lpm),Bypass flow (lpm),Sample temperature (°C),Ambient temperature (°C),ASC tube jacket temperature (°C),LED temperature (°C),Box temperature (°C),Sample RH (%),Span deviation,Mass concentration (μg/m³),Mass concentration (μg/m³),Mass concentration (μg/m³)
DateTimeUTC,F1_M11,P_M11,Q1_M11,Q2_M11,T1_M11,T2_M11,T3_M11,T4_M11,T5_M11,U1_M11,ZSPAN_M11,X2_M11,X0_M11,X1_M11
2021-08-20 13:00:00,,0825.8,4.99,0.00,29.4,28.1,00.0,38.7,31.0,14.1,0002.4,0010.23,0016.84,0009.64
2021-08-20 13:01:00,,0825.8,5.00,0.00,29.4,28.2,00.0,38.7,31.1,14.6,0002.5,0010.27,0016.65,0009.64
2021-08-20 13:02:00,,0825.9,5.01,0.00,29.4,28.2,00.0,38.7,31.1,14.9,0002.6,0010.23,0015.80,0009.63
2021-08-20 13:03:00,,0826.0,4.99,0.00,29.4,28.2,00.0,38.7,31.1,14.8,0002.6,0010.25,0015.69,0009.62
2021-08-20 13:04:00,,0825.9,5.00,0.00,29.4,28.3,00.0,38.7,31.1,14.8,0002.6,0010.29,0015.81,0009.66
2021-08-20 13:05:00,,0825.8,5.00,0.00,29.4,28.3,00.0,38.7,31.2,15.1,0002.8,0010.32,0015.60,0009.70
2021-08-20 13:06:00,,0825.7,4.99,0.00,29.5,28.4,00.0,38.7,31.2,15.2,0002.6,0010.29,0014.98,0009.69
2021-08-20 13:07:00,,0825.7,5.00,0.00,29.5,28.4,00.0,38.7,31.2,14.8,0002.5,0010.26,0014.73,0009.71
2021-08-20 13:08:00,,0825.7,5.00,0.00,29.5,28.5,00.0,38.7,31.1,14.4,0002.5,0010.32,0014.72,0009.75
2021-08-20 13:09:00,,0825.8,5.01,0.00,29.5,28.5,00.0,38.7,31.2,15.0,0002.5,0010.47,0014.95,0009.85
2021-08-20 13:10:00,,0825.8,5.00,0.00,29.5,28.5,00.0,38.7,31.2,15.4,0002.7,0010.57,0015.16,0009.91
2021-08-20 13:11:00,,0825.8,5.00,0.00,29.5,28.5,00.0,38.7,31.2,15.4,0003.0,0010.62,0015.23,0009.94
2021-08-20 13:12:00,,0825.8,5.00,0.00,29.5,28.5,00.0,38.7,31.2,15.7,0003.0,0010.59,0015.08,0009.99
2021-08-20 13:13:00,,0825.7,5.00,0.00,29.5,28.5,00.0,38.7,31.3,15.2,0003.2,0010.65,0015.23,0010.04
2021-08-20 13:14:00,,0825.6,5.00,0.00,29.5,28.5,00.0,38.7,31.3,14.6,0003.3,0010.73,0015.24,0010.15
2021-08-20 13:15:00,,0825.6,4.99,0.00,29.5,28.5,00.0,38.7,31.3,14.8,0003.2,0010.81,0015.50,0010.24
2021-08-20 13:16:00,,0825.4,5.01,0.00,29.6,28.5,00.0,38.7,31.3,14.3,0003.0,0010.98,0016.26,0010.39
2021-08-20 13:17:00,,0825.5,4.99,0.00,29.6,28.5,00.0,38.7,31.3,14.4,0003.2,0011.23,0016.88,0010.60
2021-08-20 13:18:00,,0825.5,4.99,0.00,29.6,28.5,00.0,38.7,31.3,14.6,0003.2,0011.47,0017.13,0010.81
2021-08-20 13:19:00,,0825.5,4.99,0.00,29.6,28.5,00.0,38.7,31.3,14.9,0003.2,0011.63,0017.45,0010.97
2021-08-20 13:20:00,,0825.4,5.01,0.00,29.6,28.5,00.0,38.7,31.3,14.8,0003.2,0011.81,0017.69,0011.16
2021-08-20 13:21:00,,0825.5,4.99,0.00,29.6,28.4,00.0,38.7,31.3,15.1,0003.1,0011.97,0017.88,0011.32
2021-08-20 13:22:00,,0825.5,5.00,0.00,29.6,28.4,00.0,38.7,31.3,15.7,0002.9,0012.18,0018.21,0011.51
2021-08-20 13:23:00,,0825.4,5.00,0.00,29.6,28.5,00.0,38.7,31.3,16.0,0003.0,0012.38,0018.50,0011.68
2021-08-20 13:24:00,,0825.4,4.99,0.00,29.6,28.4,00.0,38.8,31.2,15.0,0002.8,0012.55,0018.73,0011.86
2021-08-20 13:25:00,,0825.4,5.00,0.00,29.5,28.4,00.0,38.8,31.2,15.3,0002.7,0012.76,0019.05,0012.04
2021-08-20 13:26:00,,0825.3,5.01,0.00,29.5,28.4,00.0,38.8,31.3,15.3,0002.7,0012.96,0019.50,0012.18
2021-08-20 13:27:00,,0825.2,4.98,0.00,29.5,28.4,00.0,38.8,31.2,14.7,0002.8,0013.10,0019.21,0012.29
2021-08-20 13:28:00,,0825.2,5.01,0.00,29.5,28.4,00.0,38.8,31.2,15.0,0002.8,0013.14,0018.93,0012.36
2021-08-20 13:29:00,,0825.2,5.00,0.00,29.5,28.4,00.0,38.8,31.2,15.2,0002.8,0013.19,0018.85,0012.43
2021-08-20 13:30:00,,0825.2,5.00,0.00,29.5,28.4,00.0,38.8,31.1,15.4,0002.8,0013.21,0018.73,0012.47
2021-08-20 13:31:00,,0825.2,5.00,0.00,29.4,28.4,00.0,38.7,31.1,15.3,0002.8,0013.18,0018.82,0012.47
2021-08-20 13:32:00,,0825.2,5.00,0.00,29.4,28.4,00.0,38.7,31.1,15.3,0002.9,0013.13,0018.77,0012.44
2021-08-20 13:33:00,,0825.2,5.01,0.00,29.4,28.3,00.0,38.7,31.1,15.4,0003.0,0013.04,0018.61,0012.39
2021-08-20 13:34:00,,0825.2,5.00,0.00,29.4,28.4,00.0,38.7,31.1,15.7,0003.0,0013.02,0018.65,0012.37
2021-08-20 13:35:00,,0825.2,4.99,0.00,29.4,28.3,00.0,38.7,31.1,16.1,0003.1,0012.99,0018.53,0012.31
2021-08-20 13:36:00,,0825.3,5.00,0.00,29.4,28.4,00.0,38.7,31.1,16.2,0003.2,0012.89,0018.38,0012.22
2021-08-20 13:37:00,,0825.3,4.99,0.00,29.4,28.4,00.0,38.7,31.1,15.5,0003.2,0012.76,0017.99,0012.14
2021-08-20 13:38:00,,0825.3,5.02,0.00,29.4,28.4,00.0,38.7,31.1,15.2,0003.3,0012.65,0017.55,0012.04
2021-08-20 13:39:00,,0825.4,4.99,0.00,29.4,28.4,00.0,38.7,31.0,15.2,0003.3,0012.56,0017.49,0011.92
2021-08-20 13:40:00,,0825.3,5.01,0.00,29.4,28.4,00.0,38.6,31.0,16.2,0003.1,0012.49,0017.48,0011.81
2021-08-20 13:41:00,,0825.4,4.97,0.00,29.3,28.4,00.0,38.6,31.1,17.3,0003.0,0012.38,0017.39,0011.68
2021-08-20 13:42:00,,0825.4,5.01,0.00,29.4,28.4,00.0,38.6,31.1,17.2,0002.9,0012.27,0018.00,0011.55
2021-08-20 13:43:00,,0825.4,4.99,0.00,29.4,28.5,00.0,38.6,31.1,17.0,0002.7,0012.15,0017.76,0011.43
2021-08-20 13:44:00,,0825.3,5.01,0.00,29.4,28.5,00.0,38.6,31.1,16.5,0002.6,0011.94,0017.46,0011.24
2021-08-20 13:45:00,,0825.3,5.00,0.00,29.4,28.5,00.0,38.6,31.2,16.9,0002.5,0011.67,0017.06,0010.99
2021-08-20 13:46:00,,0825.3,5.00,0.00,29.4,28.5,00.0,38.6,31.2,17.1,0002.2,0011.37,0016.60,0010.73
2021-08-20 13:47:00,,0825.4,5.00,0.00,29.4,28.5,00.0,38.6,31.2,17.4,0002.2,0011.09,0016.28,0010.48
2021-08-20 13:48:00,,0825.3,5.00,0.00,29.4,28.6,00.0,38.6,31.2,17.2,0002.0,0010.80,0015.89,0010.22
2021-08-20 13:49:00,,0825.2,4.98,0.00,29.4,28.6,00.0,38.6,31.2,17.2,0001.8,0010.49,0015.42,0009.95
2021-08-20 13:50:00,,0825.1,5.01,0.00,29.4,28.6,00.0,38.6,31.2,17.4,0001.8,0010.22,0015.13,0009.70
2021-08-20 13:51:00,,0825.1,4.99,0.00,29.4,28.6,00.0,38.6,31.2,16.9,0002.0,0009.90,0014.70,0009.43
2021-08-20 13:52:00,,0825.1,4.99,0.00,29.4,28.6,00.0,38.6,31.2,16.8,0002.2,0009.62,0014.33,0009.16
2021-08-20 13:53:00,,0825.1,5.02,0.00,29.4,28.6,00.0,38.6,31.1,16.9,0002.5,0009.37,0013.18,0008.95
2021-08-20 13:54:00,,0825.2,4.99,0.00,29.4,28.6,00.0,38.6,31.1,16.7,0002.5,0009.15,0012.90,0008.74
2021-08-20 13:55:00,,0825.1,5.00,0.00,29.4,28.5,00.0,38.6,31.1,16.9,0002.5,0009.07,0012.93,0008.65
2021-08-20 13:56:00,,0825.0,5.02,0.00,29.4,28.5,00.0,38.6,31.1,16.7,0002.6,0009.08,0013.06,0008.63
2021-08-20 13:57:00,,0825.0,5.00,0.00,29.4,28.5,00.0,38.6,31.1,16.5,0002.9,0009.12,0013.18,0008.66
2021-08-20 13:58:00,,0825.0,4.99,0.00,29.3,28.5,00.0,38.6,31.1,16.1,0003.0,0009.22,0013.35,0008.73
2021-08-20 13:59:00,,0825.0,5.00,0.00,29.3,28.5,00.0,38.6,31.1,16.4,0003.1,0009.35,0014.17,0008.83
